Hourly Data Report for May 13, 2012

All times are specified in Local Standard Time (LST). Add 1 hour to adjust for Daylight Saving Time where and when it is observed.

LONDON A
ONTARIO

43°01'59.000" N
81°09'04.000" W
278.00 m
6144473
71623
YXU

Download Data

Hourly Data (May 2012)
Hourly Data Report for May 13, 2012
Temp Definition
°C
Dew Point Temp Definition
°C
Rel Hum Definition
%
Wind Dir Definition
10's deg

Wind Spd Definition
km/h
Visibility Definition
km
Stn Press Definition
kPa
Hmdx Definition


Wind Chill Definition


Weather Definition


TIME
00:00 Legend Double Dagger 11.9 11.0 94 35 8 10.0 99.00     LegendNANA
01:00 Legend Double Dagger 11.8 10.6 92 34 5 10.0 98.98     Cloudy
02:00 Legend Double Dagger 11.6 9.4 86 34 8 10.0 98.97     LegendNANA
03:00 Legend Double Dagger 11.0 7.5 79 35 11 10.0 98.99     LegendNANA
04:00 Legend Double Dagger 10.1 3.9 65 0 12 10.0 99.01     Rain Showers
05:00 Legend Double Dagger 9.4 5.0 74 35 7 10.0 99.02     Rain Showers
06:00 Legend Double Dagger 8.5 4.9 78 33 5 10.0 99.07     Rain Showers
07:00 Legend Double Dagger 8.8 6.1 83 35 8 10.0 99.06     Rain Showers
08:00 Legend Double Dagger 9.6 6.5 81 0 6 10.0 99.06     LegendNANA
09:00 Legend Double Dagger 11.5 6.5 71 34 9 10.0 99.05     LegendNANA
10:00 Legend Double Dagger 13.9 6.6 61 32 10 10.0 99.03     Mostly Cloudy
11:00 Legend Double Dagger 14.5 6.7 59 34 7 10.0 99.03     LegendNANA
12:00 Legend Double Dagger 16.7 8.0 56 33 12 10.0 98.96     LegendNANA
13:00 Legend Double Dagger 18.2 9.6 57 33 5 10.0 98.91     Mostly Cloudy
14:00 Legend Double Dagger 19.1 9.7 54   0 10.0 98.85     LegendNANA
15:00 Legend Double Dagger 19.8 8.3 47 29 14 10.0 98.79     LegendNANA
16:00 Legend Double Dagger 20.0 6.8 42 33 14 10.0 98.75     Mainly Clear
17:00 Legend Double Dagger 19.2 2.3 32 31 16 10.0 98.75     LegendNANA
18:00 Legend Double Dagger 18.0 4.0 39 31 10 10.0 98.71     LegendNANA
19:00 Legend Double Dagger 16.5 0.3 33 30 8 10.0 98.71     Mostly Cloudy
20:00 Legend Double Dagger 14.7 0.6 38 29 10 10.0 98.72     LegendNANA
21:00 Legend Double Dagger 12.4 2.3 50 29 4 10.0 98.74     LegendNANA
22:00 Legend Double Dagger 9.9 3.9 66 28 4 10.0 98.73     Mainly Clear
23:00 Legend Double Dagger 8.6 3.3 69 34 4 10.0 98.70     LegendNANA

Notes on Data Quality.

Legend

  • E = Estimated
  • M = Missing
  • NA = Not Available
  • ‡ = Partner data that is not subject to review by the National Climate Archives
Date modified: